FW2524 Weather Reports


time (UTC)temp
C
wind
direction
speed
KPH
gust
KPH
rain 1hr
cm
rain 24hr
cm
rain mn
cm
humidity
%
barometer
mb
20260508213048 20 102 0.0 12.9 0.00 0.00 0.00 41 1015.4
20260508211546 20 159 0.0 4.8 0.00 0.00 0.00 39 1015.4
20260508210044 20 146 3.2 17.7 0.00 0.00 0.00 40 1015.4
20260508204541 21 157 3.2 12.9 0.00 0.00 0.00 36 1015.5
20260508203042 21 166 1.6 14.5 0.00 0.00 0.00 37 1015.8
20260508201546 21 177 0.0 4.8 0.00 0.00 0.00 37 1015.7
20260508200034 20 133 3.2 12.9 0.00 0.00 0.00 35 1015.9
20260508194530 20 283 0.0 12.9 0.00 0.00 0.00 37 1016.3
20260508193026 21 131 4.8 14.5 0.00 0.00 0.00 35 1016.3
20260508191533 22 109 6.4 14.5 0.00 0.00 0.00 32 1016.9
20260508190031 21 97 3.2 12.9 0.00 0.00 0.00 36 1017.2
20260508184517 20 139 3.2 12.9 0.00 0.00 0.00 38 1017.4
20260508183016 21 288 8.0 17.7 0.00 0.00 0.00 34 1017.3
20260508181517 20 121 14.5 24.1 0.00 0.00 0.00 33 1017.4
20260508180114 20 147 0.0 19.3 0.00 0.00 0.00 37 1017.7
20260508174553 20 232 3.2 16.1 0.00 0.00 0.00 38 1017.9
20260508173046 18 117 6.4 14.5 0.00 0.00 0.00 38 1018.1
20260508171521 20 207 1.6 14.5 0.00 0.00 0.00 33 1018.3
20260508170012 20 126 3.2 11.3 0.00 0.00 0.00 38 1018.4
20260508164544 19 289 6.4 12.9 0.00 0.00 0.00 35 1019.0
20260508163040 18 148 1.6 17.7 0.00 0.00 0.00 39 1019.1
20260508161510 18 355 3.2 11.3 0.00 0.00 0.00 36 1019.2
20260508160009 18 123 4.8 12.9 0.00 0.00 0.00 40 1019.3
20260508154505 18 93 0.0 11.3 0.00 0.00 0.00 37 1019.6
20260508153004 17 64 1.6 12.9 0.00 0.00 0.00 39 1019.5
20260508151505 18 105 4.8 12.9 0.00 0.00 0.00 37 1019.7
20260508150005 18 144 6.4 14.5 0.00 0.00 0.00 39 1019.4
20260508144531 17 124 1.6 12.9 0.00 0.00 0.00 44 1019.4
20260508143033 17 347 4.8 12.9 0.00 0.00 0.00 42 1019.5
20260508141547 16 116 3.2 9.7 0.00 0.00 0.00 45 1019.7
20260508140028 16 107 3.2 17.7 0.00 0.00 0.00 49 1019.8
20260508134530 16 57 4.8 11.3 0.00 0.00 0.00 51 1019.7
20260508133025 17 42 0.0 8.0 0.00 0.00 0.00 57 1019.6
20260508131554 17 36 0.0 6.4 0.00 0.00 0.00 58 1019.5
20260508130053 16 360 0.0 0.0 0.00 0.00 0.00 58 1019.4
20260508124558 16 298 0.0 0.0 0.00 0.00 0.00 61 1019.3
20260508123051 14 280 0.0 0.0 0.00 0.00 0.00 68 1019.4
20260508121547 12 280 0.0 0.0 0.00 0.00 0.00 73 1019.0
20260508120046 11 280 0.0 4.8 0.00 0.00 0.00 80 1018.8
20260508114542 10 279 0.0 3.2 0.00 0.00 0.00 86 1018.7
20260508113050 9 279 0.0 0.0 0.00 0.00 0.00 86 1018.4
20260508111540 8 279 0.0 1.6 0.00 0.00 0.00 86 1018.1
20260508110038 8 279 0.0 0.0 0.00 0.00 0.00 84 1017.8
20260508104532 8 279 0.0 0.0 0.00 0.00 0.00 83 1017.6
20260508103035 8 279 0.0 1.6 0.00 0.00 0.00 82 1017.3
20260508101531 8 279 0.0 3.2 0.00 0.00 0.00 81 1017.0
20260508100024 8 279 0.0 3.2 0.00 0.00 0.00 80 1016.8
20260508094519 8 279 3.2 6.4 0.00 0.00 0.00 79 1016.7
20260508093018 8 250 0.0 0.0 0.00 0.00 0.00 76 1016.5
20260508091529 8 249 0.0 0.0 0.00 0.00 0.00 75 1016.6
20260508090023 8 250 0.0 0.0 0.00 0.00 0.00 72 1016.3
20260508084509 8 249 0.0 0.0 0.00 0.00 0.00 71 1016.1
20260508083007 8 249 0.0 0.0 0.00 0.00 0.00 69 1016.1
20260508081509 9 250 0.0 0.0 0.00 0.00 0.00 68 1016.0
20260508080003 9 250 0.0 3.2 0.00 0.00 0.00 70 1015.7
20260508074606 9 249 0.0 1.6 0.00 0.00 0.00 69 1015.7
20260508073058 10 249 0.0 1.6 0.00 0.00 0.00 69 1015.7
20260508071557 10 249 0.0 0.0 0.00 0.00 0.00 69 1015.5
20260508070055 10 249 0.0 0.0 0.00 0.00 0.00 69 1015.5
20260508064524 10 249 0.0 0.0 0.00 0.00 0.00 69 1015.4
20260508063021 10 249 0.0 1.6 0.00 0.00 0.00 69 1015.4
20260508061518 10 272 0.0 8.0 0.00 0.00 0.00 67 1015.4
20260508060014 11 278 0.0 0.0 0.00 0.00 0.00 66 1015.6
20260508054512 11 278 0.0 0.0 0.00 0.00 0.00 64 1015.5
20260508053012 11 278 0.0 0.0 0.00 0.00 0.00 64 1015.6
20260508051507 11 278 0.0 0.0 0.00 0.00 0.00 64 1015.4
20260508050005 11 278 0.0 0.0 0.00 0.00 0.00 62 1015.4
20260508044502 12 278 0.0 0.0 0.00 0.00 0.00 64 1015.3
20260508043109 12 277 3.2 6.4 0.00 0.00 0.00 61 1015.2
20260508041559 12 303 0.0 3.2 0.00 0.00 0.00 60 1015.0
20260508040025 12 303 0.0 0.0 0.00 0.00 0.00 60 1015.1
20260508034522 13 303 0.0 0.0 0.00 0.00 0.00 56 1015.1
20260508033018 13 303 0.0 0.0 0.00 0.00 0.00 55 1015.2
20260508031513 14 303 1.6 4.8 0.00 0.00 0.00 52 1015.1
20260508030012 14 303 1.6 6.4 0.00 0.00 0.00 51 1015.1
20260508024510 15 302 1.6 8.0 0.00 0.00 0.00 50 1014.9
20260508023004 15 319 3.2 9.7 0.00 0.00 0.00 50 1014.5
20260508021502 15 311 1.6 6.4 0.00 0.00 0.00 49 1014.4
20260508020107 15 317 4.8 9.7 0.00 0.00 0.00 48 1014.3
20260508014556 16 329 6.4 17.7 0.00 0.00 0.00 48 1013.8
20260508013050 16 290 12.9 22.5 0.00 0.00 0.00 47 1013.6
20260508011546 16 312 8.0 19.3 0.00 0.00 0.00 48 1013.3
20260508010044 16 333 12.9 19.3 0.00 0.00 0.00 49 1012.9
20260508004542 17 14 8.0 17.7 0.00 0.00 0.00 50 1012.6
20260508003007 17 336 4.8 12.9 0.00 0.00 0.00 52 1012.4
20260508001502 18 305 11.3 17.7 0.00 0.00 0.00 51 1011.7
20260508000058 18 348 3.2 14.5 0.00 0.00 0.00 51 1011.5
20260507234556 18 281 16.1 27.4 0.00 0.00 0.00 50 1011.3
20260507233051 19 323 12.9 22.5 0.00 0.00 0.00 50 1010.9
20260507231553 20 258 12.9 30.6 0.00 0.00 0.00 48 1010.4
20260507230014 22 319 11.3 22.5 0.00 0.00 0.00 50 1010.1
20260507224511 22 305 17.7 24.1 0.00 0.00 0.00 48 1009.5
20260507223005 23 279 12.9 22.5 0.00 0.00 0.00 48 1009.0
20260507221507 23 298 9.7 24.1 0.00 0.00 0.00 48 1008.7
20260507220100 25 237 3.2 16.1 0.00 0.00 0.00 52 1008.5
20260507214618 25 277 3.2 8.0 0.00 0.00 0.00 51 1008.3